Location: Piotrkow Trybunalski
(51.4000°N, 19.6830°E)
Time: 12:00:45
(UTC+01:00)

Transit 2A - Visible Passes

Search period start: 28 January 2023 00:00
Search period end: 07 February 2023 00:00
Orbit: 594 x 962 km, 66.7° (Epoch: 28 January)

Date Brightness Start Highest point End Pass type
(mag) Time Alt. Az. Time Alt. Az. Time Alt. Az.
28 Jan 7.0 17:27:48 10° SSE 17:31:39 24° ESE 17:34:43 15° ENE visible
28 Jan 6.2 19:09:26 10° SW 19:14:18 67° NW 19:15:14 55° N visible
28 Jan 8.6 20:54:25 10° WNW 20:55:44 16° WNW 20:55:44 16° WNW visible
29 Jan 5.9 18:34:52 10° SW 18:39:45 88° NW 18:42:19 32° NE visible
29 Jan 7.9 20:19:22 10° W 20:22:49 26° NW 20:22:49 26° NW visible
30 Jan 5.9 18:00:27 10° SSW 18:05:16 69° ESE 18:09:19 18° NE visible
30 Jan 7.4 19:44:23 10° W 19:48:58 32° NNW 19:49:48 30° NNW visible
30 Jan 9.1 21:30:17 10° NW 21:30:18 10° NW 21:30:18 10° NW visible
31 Jan 6.2 17:26:11 10° SSW 17:30:52 49° ESE 17:36:04 10° NE visible
31 Jan 7.1 19:09:29 10° WSW 19:14:13 39° NW 19:16:42 26° NNE visible
31 Jan 8.6 20:55:13 10° WNW 20:57:12 16° NW 20:57:12 16° NW visible
01 Feb 6.7 18:34:40 10° WSW 18:39:32 50° NW 18:43:32 18° NNE visible
01 Feb 8.1 20:20:07 10° WNW 20:24:01 21° NNW 20:24:01 21° NNW visible
02 Feb 6.3 17:59:58 10° SW 18:04:54 65° NW 18:10:17 11° NE visible
02 Feb 8.0 19:45:02 10° WNW 19:49:12 23° NNW 19:50:45 21° N visible
02 Feb 9.0 21:30:46 10° NW 21:31:15 11° NNW 21:31:15 11° NNW visible
03 Feb 6.0 17:25:23 10° SW 17:30:21 86° NW 17:35:55 10° NE visible
03 Feb 7.8 19:09:57 10° W 19:14:22 27° NNW 19:17:27 17° NNE visible
03 Feb 8.6 20:55:52 10° NW 20:57:56 16° NNW 20:57:56 16° NNW visible
04 Feb 7.5 18:34:57 10° W 18:39:34 32° NNW 18:44:05 12° NNE visible
04 Feb 8.3 20:20:51 10° NW 20:24:34 18° N 20:24:34 18° N visible
05 Feb 7.2 18:00:01 10° WSW 18:04:49 39° NW 18:10:07 10° NNE visible
05 Feb 8.2 19:45:47 10° WNW 19:49:37 19° NNW 19:51:10 17° N visible
05 Feb 8.9 21:30:51 10° NNW 21:31:39 13° NNW 21:31:39 13° NNW visible
06 Feb 6.9 17:25:12 10° WSW 17:30:06 49° NW 17:35:36 10° NNE visible
06 Feb 8.1 19:10:40 10° WNW 19:14:42 21° NNW 19:17:44 14° NNE visible
06 Feb 8.6 20:56:07 10° NW 20:58:13 16° NNW 20:58:13 16° NNW visible
